TimeCDT,TemperatureF,Dew PointF,Humidity,Sea Level PressureIn,VisibilityMPH,Wind Direction,Wind SpeedMPH,Gust SpeedMPH,PrecipitationIn,Events,Conditions,WindDirDegrees,DateUTC
12:53 AM,39.0,30.9,73,30.10,10.0,ESE,9.2,-,N/A,,Clear,110,2013-04-21 05:53:00
1:53 AM,39.0,30.9,73,30.09,10.0,ESE,10.4,-,N/A,,Clear,120,2013-04-21 06:53:00
2:53 AM,37.9,32.0,79,30.07,10.0,SE,8.1,-,N/A,,Clear,140,2013-04-21 07:53:00
3:53 AM,37.9,33.1,83,30.06,10.0,SSE,9.2,-,N/A,,Clear,150,2013-04-21 08:53:00
4:53 AM,37.9,33.1,83,30.05,10.0,SSE,10.4,-,N/A,,Clear,160,2013-04-21 09:53:00
5:53 AM,37.0,34.0,89,30.05,10.0,South,11.5,-,N/A,,Clear,170,2013-04-21 10:53:00
6:53 AM,37.0,34.0,89,30.06,10.0,South,10.4,-,N/A,,Clear,170,2013-04-21 11:53:00
7:53 AM,39.9,36.0,86,30.08,10.0,South,10.4,-,N/A,,Clear,180,2013-04-21 12:53:00
8:53 AM,46.9,39.0,74,30.07,10.0,South,12.7,-,N/A,,Clear,190,2013-04-21 13:53:00
9:53 AM,54.0,37.9,55,30.05,10.0,SSW,18.4,26.5,N/A,,Clear,210,2013-04-21 14:53:00
10:53 AM,55.9,37.0,49,30.04,10.0,South,21.9,27.6,N/A,,Scattered Clouds,190,2013-04-21 15:53:00
11:53 AM,60.1,37.9,44,30.05,10.0,SW,20.7,27.6,N/A,,Mostly Cloudy,230,2013-04-21 16:53:00
12:53 PM,63.0,37.9,40,30.03,10.0,SSW,18.4,-,N/A,,Mostly Cloudy,210,2013-04-21 17:53:00
1:53 PM,68.0,37.9,33,30.00,10.0,SW,16.1,24.2,N/A,,Mostly Cloudy,220,2013-04-21 18:53:00
2:53 PM,69.1,37.9,32,29.99,10.0,WSW,9.2,19.6,N/A,,Clear,250,2013-04-21 19:53:00
3:53 PM,66.9,39.0,36,29.98,10.0,West,9.2,-,N/A,,Mostly Cloudy,260,2013-04-21 20:53:00
4:53 PM,66.9,39.9,37,29.96,10.0,West,8.1,-,0.00,Rain,Light Rain,260,2013-04-21 21:53:00
5:53 PM,64.0,39.9,41,29.99,10.0,North,15.0,26.5,0.00,,Overcast,10,2013-04-21 22:53:00
6:00 PM,62.6,44.6,52,29.98,10.0,NNW,12.7,-,N/A,,Overcast,340,2013-04-21 23:00:00
6:53 PM,59.0,45.0,60,30.01,10.0,North,11.5,-,N/A,,Scattered Clouds,10,2013-04-21 23:53:00
7:53 PM,55.9,46.9,72,30.06,8.0,Calm,Calm,-,0.01,Rain,Light Rain,0,2013-04-22 00:53:00
8:53 PM,52.0,46.9,83,30.05,10.0,NE,13.8,-,0.01,,Clear,50,2013-04-22 01:53:00
9:53 PM,48.9,44.1,83,30.09,10.0,NNE,24.2,29.9,N/A,,Clear,20,2013-04-22 02:53:00
10:53 PM,46.0,42.1,86,30.15,9.0,NNE,19.6,-,0.00,Rain,Light Rain,20,2013-04-22 03:53:00
11:25 PM,44.6,42.8,93,30.15,10.0,NNE,13.8,-,0.00,Rain,Light Rain,20,2013-04-22 04:25:00
11:53 PM,44.1,41.0,89,30.13,10.0,NE,19.6,-,0.02,Rain,Light Rain,40,2013-04-22 04:53:00